Fortuna, CA

9:13 PM PDT on April 26, 2017 (GMT -0700)
Rohnerville

Weather History for KFOT - March, 2014

Change the Weather History Date:

Wednesday, March 12, 2014

  Actual Average (KEKA) Record (KEKA)
Temperature  
Mean Temperature 58 °F -  
Max Temperature 75 °F 56 °F 70 °F (1905)
Min Temperature 42 °F 43 °F 32 °F (1950)
Degree Days  
Heating Degree Days 6    
Growing Degree Days 8 (Base 50)    
Moisture  
Dew Point 34 °F    
Average Humidity 49    
Maximum Humidity 87    
Minimum Humidity 17    
Precipitation  
Precipitation 0.00 in - - ()
Sea Level Pressure  
Sea Level Pressure 30.16 in    
Wind  
Wind Speed 11 mph (SE)    
Max Wind Speed 21 mph    
Max Gust Speed 21 mph    
Visibility 10 miles    
Events      
Averages and records for this station are not official NWS values.
T = Trace of Precipitation, MM = Missing Value Source: NWS Daily Summary

Daily Weather History Graph

Daily Weather History Graph

Search for Another Location

Airport or City:

Trip Planner

Search our weather history database for the weather conditions in past years. The results will help you decide how hot, cold, wet, or windy it might be!

Date:

Astronomy

Mar. 12, 2014 Rise Set
Actual Time 7:32 AM PDT 7:20 PM PDT
Civil Twilight 7:05 AM PDT 7:47 PM PDT
Nautical Twilight 6:33 AM PDT 8:19 PM PDT
Astronomical Twilight 6:02 AM PDT 8:51 PM PDT
Moon 3:55 PM PDT (3/12) 5:08 AM PDT (3/12)
Length of Visible Light 12h 41m
Length of Day
11h 47m
Waxing Gibbous, 86% of the Moon is Illuminated
Mar 12
Waxing Gibbous
Mar 16
Full
Mar 23
Last Quarter
Mar 30
New
Apr 7
First Quarter

Hourly Weather History & Observations

Time (PDT) Temp. Windchill Dew Point Humidity Pressure Visibility Wind Dir Wind Speed Gust Speed Precip Events Conditions
12:10 AM 42.8 °F 37.0 °F 39.2 °F 87% 30.19 in 10.0 mi SSE 10.4 mph - N/A   Clear
12:30 AM 44.6 °F 38.1 °F 39.2 °F 81% 30.19 in 10.0 mi ESE 13.8 mph - N/A   Clear
12:50 AM 42.8 °F 38.0 °F 39.2 °F 87% 30.18 in 10.0 mi SSE 8.1 mph - N/A   Clear
1:10 AM 44.6 °F 39.7 °F 37.4 °F 76% 30.18 in 10.0 mi SE 9.2 mph - N/A   Clear
1:30 AM 44.6 °F 39.2 °F 35.6 °F 71% 30.18 in 10.0 mi SE 10.4 mph - N/A   Clear
1:50 AM 44.6 °F 39.2 °F 35.6 °F 71% 30.18 in 10.0 mi SE 10.4 mph - N/A   Clear
2:10 AM 48.2 °F - 32.0 °F 54% 30.18 in 10.0 mi ESE 12.7 mph - N/A   Clear
2:30 AM 50.0 °F - 32.0 °F 50% 30.18 in 10.0 mi East 13.8 mph - N/A   Clear
2:50 AM 48.2 °F - 32.0 °F 54% 30.18 in 10.0 mi ESE 11.5 mph - N/A   Clear
3:10 AM 48.2 °F - 32.0 °F 54% 30.18 in 10.0 mi ESE 11.5 mph - N/A   Clear
3:30 AM 51.8 °F - 28.4 °F 41% 30.17 in 10.0 mi ESE 15.0 mph - N/A   Clear
3:50 AM 53.6 °F - 26.6 °F 35% 30.17 in 10.0 mi East 19.6 mph - N/A   Clear
4:10 AM 53.6 °F - 26.6 °F 35% 30.17 in 10.0 mi ESE 20.7 mph - N/A   Clear
4:30 AM 48.2 °F - 30.2 °F 50% 30.18 in 10.0 mi SE 15.0 mph - N/A   Clear
4:50 AM 51.8 °F - 26.6 °F 38% 30.17 in 10.0 mi ESE 17.3 mph - N/A   Clear
5:10 AM 51.8 °F - 26.6 °F 38% 30.17 in 10.0 mi ESE 17.3 mph - N/A   Clear
5:30 AM 48.2 °F - 30.2 °F 50% 30.17 in 10.0 mi SE 12.7 mph - N/A   Clear
5:50 AM 46.4 °F 41.1 °F 30.2 °F 53% 30.18 in 10.0 mi SE 11.5 mph - N/A   Clear
6:10 AM 46.4 °F 41.5 °F 30.2 °F 53% 30.18 in 10.0 mi SE 10.4 mph - N/A   Clear
6:30 AM 46.4 °F 41.5 °F 28.4 °F 50% 30.18 in 10.0 mi SE 10.4 mph - N/A   Clear
6:50 AM 50.0 °F - 26.6 °F 40% 30.18 in 10.0 mi SE 11.5 mph - N/A   Clear
7:10 AM 48.2 °F - 26.6 °F 43% 30.18 in 10.0 mi SE 11.5 mph - N/A   Clear
7:30 AM 50.0 °F - 26.6 °F 40% 30.18 in 10.0 mi SE 12.7 mph - N/A   Clear
7:50 AM 50.0 °F - 26.6 °F 40% 30.18 in 10.0 mi ESE 15.0 mph - N/A   Clear
8:10 AM 53.6 °F - 26.6 °F 35% 30.19 in 10.0 mi ESE 13.8 mph - N/A   Clear
8:30 AM 53.6 °F - 26.6 °F 35% 30.19 in 10.0 mi SE 12.7 mph - N/A   Clear
8:50 AM 53.6 °F - 28.4 °F 38% 30.20 in 10.0 mi SE 11.5 mph - N/A   Clear
9:10 AM 53.6 °F - 30.2 °F 41% 30.20 in 10.0 mi SSE 6.9 mph - N/A   Clear
9:30 AM 59.0 °F - 28.4 °F 31% 30.20 in 10.0 mi SE 15.0 mph - N/A   Clear
9:50 AM 59.0 °F - 30.2 °F 34% 30.20 in 10.0 mi SE 11.5 mph - N/A   Clear
10:10 AM 60.8 °F - 32.0 °F 34% 30.20 in 10.0 mi SE 16.1 mph - N/A   Clear
10:30 AM 62.6 °F - 32.0 °F 32% 30.20 in 10.0 mi SE 13.8 mph - N/A   Clear
10:50 AM 64.4 °F - 32.0 °F 30% 30.20 in 10.0 mi SE 12.7 mph - N/A   Clear
11:10 AM 64.4 °F - 32.0 °F 30% 30.20 in 10.0 mi SE 13.8 mph - N/A   Clear
11:30 AM 66.2 °F - 32.0 °F 28% 30.19 in 10.0 mi ESE 17.3 mph - N/A   Clear
11:50 AM 68.0 °F - 32.0 °F 26% 30.19 in 10.0 mi SE 11.5 mph 19.6 mph N/A   Clear
12:10 PM 69.8 °F - 32.0 °F 25% 30.18 in 10.0 mi SE 13.8 mph - N/A   Clear
12:30 PM 69.8 °F - 32.0 °F 25% 30.18 in 10.0 mi SE 13.8 mph - N/A   Clear
12:50 PM 71.6 °F - 30.2 °F 22% 30.17 in 10.0 mi SE 11.5 mph - N/A   Clear
1:10 PM 71.6 °F - 30.2 °F 22% 30.17 in 10.0 mi SE 9.2 mph - N/A   Clear
1:30 PM 73.4 °F - 32.0 °F 22% 30.16 in 10.0 mi SSE 8.1 mph - N/A   Clear
1:50 PM 73.4 °F - 28.4 °F 19% 30.15 in 10.0 mi SSE 3.5 mph - N/A   Clear
2:10 PM 75.2 °F - 26.6 °F 17% 30.14 in 10.0 mi SSE 6.9 mph - N/A   Clear
2:30 PM 73.4 °F - 30.2 °F 20% 30.13 in 10.0 mi WNW 10.4 mph - N/A   Clear
2:50 PM 66.2 °F - 39.2 °F 37% 30.13 in 10.0 mi WNW 15.0 mph - N/A   Clear
3:10 PM 66.2 °F - 39.2 °F 37% 30.13 in 10.0 mi WNW 15.0 mph - N/A   Clear
3:30 PM 64.4 °F - 37.4 °F 37% 30.13 in 10.0 mi WNW 16.1 mph - N/A   Clear
3:50 PM 64.4 °F - 39.2 °F 40% 30.13 in 10.0 mi WNW 15.0 mph 20.7 mph N/A   Clear
4:10 PM 62.6 °F - 39.2 °F 42% 30.13 in 10.0 mi WNW 13.8 mph 19.6 mph N/A   Clear
4:30 PM 62.6 °F - 39.2 °F 42% 30.12 in 10.0 mi WNW 13.8 mph - N/A   Clear
4:50 PM 62.6 °F - 41.0 °F 45% 30.12 in 10.0 mi West 12.7 mph - N/A   Clear
5:10 PM 62.6 °F - 39.2 °F 42% 30.12 in 10.0 mi West 13.8 mph 18.4 mph N/A   Clear
5:30 PM 60.8 °F - 37.4 °F 42% 30.11 in 10.0 mi West 10.4 mph - N/A   Clear
5:50 PM 62.6 °F - 35.6 °F 37% 30.11 in 10.0 mi West 9.2 mph - N/A   Clear
6:10 PM 59.0 °F - 39.2 °F 48% 30.11 in 10.0 mi WNW 10.4 mph - N/A   Clear
6:30 PM 57.2 °F - 41.0 °F 55% 30.12 in 10.0 mi WNW 13.8 mph - N/A   Clear
6:50 PM 55.4 °F - 41.0 °F 58% 30.12 in 10.0 mi WNW 11.5 mph 17.3 mph N/A   Clear
7:10 PM 53.6 °F - 41.0 °F 62% 30.12 in 10.0 mi West 10.4 mph - N/A   Clear
7:30 PM 51.8 °F - 41.0 °F 67% 30.12 in 10.0 mi West 9.2 mph - N/A   Clear
7:50 PM 50.0 °F - 41.0 °F 71% 30.12 in 10.0 mi West 5.8 mph - N/A   Clear
8:10 PM 50.0 °F - 39.2 °F 66% 30.12 in 10.0 mi Calm Calm - N/A   Clear
8:30 PM 48.2 °F - 39.2 °F 71% 30.12 in 10.0 mi Calm Calm - N/A   Clear
8:50 PM 48.2 °F - 41.0 °F 76% 30.12 in 10.0 mi East 3.5 mph - N/A   Clear
9:10 PM 48.2 °F - 41.0 °F 76% 30.11 in 10.0 mi SE 8.1 mph - N/A   Clear
9:30 PM 48.2 °F - 41.0 °F 76% 30.11 in 10.0 mi ESE 9.2 mph - N/A   Clear
9:50 PM 46.4 °F 42.9 °F 41.0 °F 81% 30.11 in 10.0 mi SE 6.9 mph - N/A   Clear
10:10 PM 46.4 °F 45.2 °F 41.0 °F 81% 30.12 in 10.0 mi SE 3.5 mph - N/A   Clear
10:30 PM 46.4 °F 45.2 °F 41.0 °F 81% 30.12 in 10.0 mi NNW 3.5 mph - N/A   Clear
10:50 PM 46.4 °F - 41.0 °F 81% 30.12 in 10.0 mi North - - N/A   Clear
11:10 PM 46.4 °F - 41.0 °F 81% 30.12 in 10.0 mi Calm Calm - N/A   Clear
11:30 PM 46.4 °F - 41.0 °F 81% 30.12 in 10.0 mi Calm Calm - N/A   Clear
11:50 PM 44.6 °F 42.2 °F 39.2 °F 81% 30.12 in 10.0 mi SE 4.6 mph - N/A   Clear